Location: Baia Mare
(47.6567°N, 23.5850°E)
Time: 04:18:04

ISS - Pass Details

Date: 30 March 2018
Orbit: 403 x 406 km, 51.6° (Epoch: 18 March)

Event Time Altitude Azimuth Distance (km) Brightness Sun altitude
Rises 21:19:25 0° 269° (W) 2,322 1.3 -14.9°
Reaches altitude 10° 21:21:34 10° 276° (W) 1,463 0.2 -15.3°
Maximum altitude 21:24:44 44° 350° (N) 574 -2.9 -15.7°
Enters shadow 21:26:35 21° 54° (NE) 977 -2.2 -16.0°
